Regional Weather Roundup
Issued by NWS

Home | Current Version | Previous Version | Graphics & Text | Print | Product List | Glossary Off
Versions: 1 2 3 4 5 6 7 8 9 10 11 12 13 14 15 16 17 18 19 20 21 22 23 24 25 26 27 28 29 30 31 32 33 34 35 36 37 38 39 40 41 42 43 44 45 46 47 48 49 50

000
ASUS43 KMKX 032000
RWRWI

WISCONSIN REGIONAL WEATHER ROUNDUP
NATIONAL WEATHER SERVICE MILWAUKEE/SULLIVAN WI
300 PM CDT SUN MAY 03 2015

NOTE: "FAIR" INDICATES FEW OR NO CLOUDS BELOW 12,000 FEET WITH NO
SIGNIFICANT WEATHER AND/OR OBSTRUCTIONS TO VISIBILITY.

WIZ001-002-006>008-014>016-023>028-032100-
NORTHWEST WISCONSIN

CITY           SKY/WX    TMP DP  RH WIND       PRES   REMARKS
SUPERIOR ARPT  CLOUDY    76  43  30 NW6       29.76S
ASHLAND        CLOUDY    82  51  34 VRB5      29.76S HX  81
HAYWARD        CLOUDY    76  48  37 VRB3      29.78F
SIREN          MOSUNNY   76  52  42 W12       29.79F
CUMBERLAND     MOSUNNY   75  48  38 W5        29.80F
RICE LAKE      MOSUNNY   78  48  35 NW6       29.81S
CHETEK         MOSUNNY   77  54  45 CALM      29.79F
LADYSMITH      PTSUNNY   77  52  41 W5        29.81F
EAU CLAIRE     NOT AVBL
MENOMONIE      SUNNY     78  53  41 CALM      29.79F
NEW RICHMOND   SUNNY     79  51  38 CALM      29.79S
OSCEOLA        SUNNY     78  53  42 CALM      29.81S
$$

WIZ003>005-009-010-017-018-032100-
NORTH CENTRAL WISCONSIN

CITY           SKY/WX    TMP DP  RH WIND       PRES   REMARKS
MANITOWISH WTR PTSUNNY   75  49  40 W6        29.78F
ARBOR VITAE    MOSUNNY   77  48  35 W8        29.79F
WOODRUFF       MOSUNNY   77  48  35 W8        29.79F
RHINELANDER    MOSUNNY   78  51  38 SW14G21   29.80F
EAGLE RIVER    MOSUNNY   76  46  34 SW9       29.79F
LAND O LAKES   MOSUNNY   80  42  25 SW10G16   29.79F
PHILLIPS       MOSUNNY   76  52  43 SW8       29.79F
TOMAHAWK       MOSUNNY   78  51  40 SW6       29.80F
MEDFORD        MOSUNNY   74  52  46 S8        29.81F
MERRILL        MOSUNNY   78  52  40 SW8       29.80F
$$

WIZ029-030-035-036-043>047-032100-
CENTRAL WISCONSIN

CITY           SKY/WX    TMP DP  RH WIND       PRES   REMARKS
WAUSAU         MOSUNNY   78  50  37 S13G21    29.79S
MOSINEE        NOT AVBL
MARSHFIELD     MOSUNNY   79  52  38 S14       29.81S
STEVENS POINT  MOSUNNY   76  50  40 SW14G21   29.82S
WAUPACA        MOSUNNY   80  51  35 S16       29.82S
WAUTOMA        NOT AVBL
WISC RAPIDS    MOSUNNY   78  49  35 S15       29.82F
CAMP DOUGLAS   NOT AVBL
$$

WIZ011>013-019>022-031-037>040-048>050-032100-
NORTHEAST WISCONSIN

CITY           SKY/WX    TMP DP  RH WIND       PRES   REMARKS
ANTIGO         MOSUNNY   76  52  42 S13       29.82F
SHAWANO        MOSUNNY   81  50  33 S9G17     29.81F HX  80
OCONTO         MOSUNNY   79  52  38 S12G18    29.80F
STURGEON BAY   MOSUNNY   68  45  42 S16G26    29.86F
GREEN BAY      MOSUNNY   77  53  43 S20G26    29.83S
MANITOWOC      NOT AVBL
APPLETON       PTSUNNY   75  52  43 SW21G28   29.84F
CLINTONVILLE   MOSUNNY   81  46  30 SW18      29.80F HX  80
OSHKOSH        CLOUDY    76  55  48 S20G28    29.83F
$$

WIZ032>034-041-042-053>061-032100-
SOUTHWEST WISCONSIN

CITY           SKY/WX    TMP DP  RH WIND       PRES   REMARKS
LA CROSSE      SUNNY     84  52  33 S12       29.79F HX  82
SPARTA         MOSUNNY   80  49  33 S12G20    29.81F
VIROQUA        PTSUNNY   76  53  44 S17       29.84S
BOSCOBEL       SUNNY     79  54  41 S9G20     29.84F
PRAIRIE DU CHI SUNNY     78  53  41 SE12G17   29.82S
PLATTEVILLE    MOSUNNY   69  58  66 S18G24    29.88F
$$

WIZ056-057-062-063-064-067-068-032100-
SOUTH CENTRAL WISCONSIN

CITY           SKY/WX    TMP DP  RH WIND       PRES   REMARKS
REEDSBURG      PTSUNNY   75  55  49 SW15      29.85S
BARABOO/DELLS  NOT AVBL
LONE ROCK      NOT AVBL
MINERAL POINT  MOSUNNY   72  55  56 S20G26    29.88F
MADISON        PTSUNNY   74  55  51 S16G23    29.88S
MIDDLETON      PTSUNNY   76  50  40 SW18      29.88F
WATERTOWN      PTSUNNY   74  56  53 SW20G25   29.89R
MONROE         CLOUDY    63  57  82 S8        29.92R
JANESVILLE     RAIN      66  61  82 S13G18    29.91F
$$

WIZ051-052-058>065-066-070>072-032100-
SOUTHEAST WISCONSIN

CITY           SKY/WX    TMP DP  RH WIND       PRES   REMARKS
MILWAUKEE      PTSUNNY   76  51  41 SW18G26   29.90S
WAUKESHA       CLOUDY    73  52  46 SW16G23   29.91S
MILWAUKEE/TIMM PTSUNNY   79  48  34 S21G28    29.89S
RACINE         PTSUNNY   75  51  43 SW16G22   29.92S
BURLINGTON     CLOUDY    72  50  45 SW17      29.92S
KENOSHA        CLOUDY    75  51  43 SW15G21   29.92S
FOND DU LAC    CLOUDY    77  53  43 SW14G28   29.85F
SHEBOYGAN      PTSUNNY   78  53  41 S17G25    29.86F
WEST BEND      PTSUNNY   73  50  43 SW17G25   29.88S
JUNEAU         PTSUNNY   75  55  50 S23G31    29.89F
$$

LSZ147-162-032100-
LAKE SUPERIOR

STATION/POSITION TIME  TEMP    WIND        PRES    WAVE
                       AIR SEA DIR/SP/G            HT/PER
                 (UTC) (F)     (DEG/KT/KT) (MB)    (FT/S)
W MID LAKE BUOY  1850   47 36  210/ 10/ 10 1007.8F   1
DEVILS ISLAND    1900   65     220/ 11/ 13 1007.3S
PORT WING        1900   71     250/  9/ 12 1008.1R
SAXON HARBOR     1900   58        CALM     1007.5
$$

LMZ867-665-643>646-032100-
LAKE MICHIGAN

STATION/POSITION TIME  TEMP    WIND        PRES    WAVE
                       AIR SEA DIR/SP/G            HT/PER
                 (UTC) (F)     (DEG/KT/KT) (MB)    (FT/S)
CHAMBERS ISLAND  1900   72     160/  9/ 14 1010.2F
NORTHPORT PIER   1900   59     150/ 11/ 17 1010.8F
SISTER BAY       1817   71     190/ 16/ 18   N/A
KEWAUNEE LAKESHO 1912   47     180/ 16/ 18 1010.8F
SHEBOYGAN LAKESH 1900   47     170/ 22/ 23 1012.1F
PORT WASHINGTON  1940   51     160/  5/  7 1012.9S
ATWATER BUOY     1900   50     160/ 12/ 14 1013.6F
MILWAUKEE LAKESH 1900   63     220/  7/ 13   N/A
KENOSHA   LAKESH 1900          200/ 18/ 27 1012.5F
$$

TC  - TEMPERATURE IN CELSIUS
VSB - VISIBILITY IN STATUTE MILES
WCI - WIND CHILL INDEX
HX  - HEAT INDEX




USA.gov is the U.S. government's official web portal to all federal, state and local government web resources and services.